Weather reports worldwide

Advertisment
Bozeman, mt, United States of America (2072079): temperature & dewpoint: 19.05.2019 16:00:00 - 25.05.2019 16:00:00 (MDT)Bozeman, mt, United States of America (2072079): wind speed & gusts: 19.05.2019 16:00:00 - 25.05.2019 16:00:00 (MDT)Bozeman, mt, United States of America (2072079): wind direction: 19.05.2019 16:00:00 - 25.05.2019 16:00:00 (MDT)Bozeman, mt, United States of America (2072079): reduced air pressure: 19.05.2019 16:00:00 - 25.05.2019 16:00:00 (MDT)Bozeman, mt, United States of America (2072079): visibility: 19.05.2019 16:00:00 - 25.05.2019 16:00:00 (MDT)Bozeman, mt, United States of America (2072079): precipitation: 19.05.2019 16:00:00 - 25.05.2019 16:00:00 (MDT)
Date & Time tt [°C] td [°C] ff [km/h] ff [kn] fx [km/h] fx [kn] dd ppp [hPa] vv [km] rr [mm]
25.05.2019 16:00:00 18,3 3,9 9 5 - - ESE 1008,9 16 -
25.05.2019 15:00:00 17,2 5,6 16 9 - - ENE 1009,7 16 -
25.05.2019 14:00:00 15,6 7,2 15 8 - - E 1011,2 16 0,3
25.05.2019 13:00:00 15,6 3,3 8 4 - - SSW 1010,8 16 -
25.05.2019 12:00:00 15,0 5,0 9 5 - - NNW 1011,0 16 -
25.05.2019 11:00:00 13,9 5,0 5 3 - - - 1011,6 16 -
25.05.2019 10:00:00 13,3 5,6 5 3 - - NNE 1011,9 16 -
25.05.2019 09:00:00 10,6 5,0 5 3 - - N 1012,3 16 -
25.05.2019 08:00:00 8,9 4,4 0 0 - - N 1012,3 16 -
25.05.2019 07:00:00 5,6 3,3 9 5 - - SE 1013,0 16 -
25.05.2019 06:00:00 4,4 2,8 0 0 - - N 1012,6 16 -
25.05.2019 05:00:00 6,1 3,3 11 6 - - SSE 1012,2 16 -
25.05.2019 04:00:00 6,7 4,4 0 0 - - N 1011,7 16 -
25.05.2019 03:00:00 7,8 5,0 8 4 - - SE 1012,1 16 -
25.05.2019 02:00:00 7,2 5,0 11 6 - - SE 1011,9 16 -
25.05.2019 01:00:00 7,8 5,0 9 5 - - SE 1011,2 16 -
25.05.2019 00:00:00 8,9 5,6 8 4 - - SSW 1011,0 16 -
24.05.2019 23:00:00 7,8 4,4 0 0 - - N 1011,5 16 -
24.05.2019 22:00:00 8,3 5,0 0 0 - - N 1010,9 16 -
24.05.2019 21:00:00 10,0 5,0 11 6 - - WSW 1009,9 16 -
24.05.2019 20:00:00 11,7 5,0 0 0 - - N 1009,1 16 0,0
24.05.2019 19:00:00 10,0 5,6 28 15 - - NNE 1009,2 16 0,0
24.05.2019 18:00:00 11,7 5,0 31 17 - - NW 1008,4 16 -
24.05.2019 17:00:00 15,0 2,8 9 5 - - ESE 1007,9 16 -
24.05.2019 16:00:00 15,0 4,4 9 5 - - - 1008,2 16 -
24.05.2019 15:00:00 12,2 3,9 11 6 - - SSE 1009,1 16 0,0
24.05.2019 14:00:00 12,8 4,4 22 12 - - W 1008,8 16 -
24.05.2019 13:00:00 15,0 3,3 5 3 - - - 1007,8 16 -
24.05.2019 12:00:00 14,4 3,9 9 5 - - ENE 1008,1 16 -
24.05.2019 11:00:00 12,2 3,9 9 5 - - ENE 1008,7 16 -
24.05.2019 10:00:00 11,7 3,9 5 3 - - - 1008,5 16 -
24.05.2019 09:00:00 9,4 3,3 0 0 - - N 1008,8 16 -
24.05.2019 08:00:00 7,8 3,9 5 3 - - SE 1008,8 16 -
24.05.2019 07:00:00 6,7 4,4 5 3 - - ESE 1009,2 16 -
24.05.2019 06:00:00 6,7 3,3 0 0 - - N 1009,1 16 -
24.05.2019 05:00:00 6,1 3,3 5 3 - - E 1009,0 16 -
24.05.2019 04:00:00 6,1 3,9 0 0 - - N 1008,9 16 -
24.05.2019 03:00:00 6,7 3,9 0 0 - - N 1008,5 16 -
24.05.2019 02:00:00 7,2 2,8 0 0 - - N 1008,6 16 -
24.05.2019 01:00:00 7,2 2,8 5 3 - - NNW 1008,9 16 -
24.05.2019 00:00:00 7,2 2,8 13 7 - - NW 1009,2 16 -
23.05.2019 23:00:00 8,3 2,2 9 5 - - WNW 1009,2 16 -
23.05.2019 22:00:00 8,9 1,7 11 6 - - ESE 1010,1 16 -
23.05.2019 21:00:00 9,4 1,7 15 8 - - E 1010,6 16 -
23.05.2019 20:00:00 10,6 1,1 9 5 - - ENE 1011,2 16 -
23.05.2019 19:00:00 11,1 1,1 21 11 - - NE 1011,4 16 -
23.05.2019 18:00:00 11,1 2,2 11 6 - - ENE 1012,2 16 0,0
23.05.2019 17:00:00 10,0 2,2 9 5 - - - 1013,0 16 0,0
23.05.2019 16:00:00 11,7 0,0 24 13 - - E 1012,6 16 -
23.05.2019 15:00:00 13,3 0,0 24 13 55 30 E 1012,4 16 -
23.05.2019 14:00:00 13,9 0,0 34 18 54 29 ESE 1012,4 16 -
23.05.2019 13:00:00 13,9 0,0 26 14 - - ENE 1012,5 16 -
23.05.2019 12:00:00 13,9 -1,1 26 14 - - E 1013,2 16 -
23.05.2019 11:00:00 13,9 -0,6 18 10 - - ENE 1013,3 16 -
23.05.2019 10:00:00 10,6 3,9 9 5 - - NW 1014,9 16 -
23.05.2019 09:00:00 7,2 2,2 5 3 - - NNW 1016,7 16 -
23.05.2019 08:00:00 5,0 2,8 0 0 - - N 1017,1 16 -
23.05.2019 07:00:00 3,9 2,2 0 0 - - N 1017,6 16 -
23.05.2019 06:00:00 3,3 1,7 9 5 - - SSW 1017,6 16 -
23.05.2019 05:00:00 3,3 1,1 5 3 - - SSW 1017,3 16 -
23.05.2019 04:00:00 2,8 1,1 5 3 - - - 1017,9 16 -
23.05.2019 03:00:00 4,4 1,7 0 0 - - N 1017,9 16 -
23.05.2019 02:00:00 4,4 1,7 0 0 - - N 1018,2 16 -
23.05.2019 01:00:00 5,6 2,2 5 3 - - NE 1018,1 16 -
23.05.2019 00:00:00 6,7 2,2 5 3 - - NNE 1018,1 16 -
22.05.2019 23:00:00 7,8 2,2 13 7 - - SE 1017,9 16 -
22.05.2019 22:00:00 7,8 2,8 8 4 - - NNE 1018,2 16 -
22.05.2019 21:00:00 8,3 2,2 9 5 - - SSE 1018,0 16 -
22.05.2019 20:00:00 10,0 2,2 15 8 - - S 1017,3 16 -
22.05.2019 19:00:00 11,1 2,8 8 4 - - NNE 1016,5 16 -
22.05.2019 18:00:00 12,2 0,0 15 8 - - NE 1015,9 16 -
22.05.2019 17:00:00 11,7 1,7 9 5 - - SE 1015,8 16 -
22.05.2019 16:00:00 11,1 1,1 8 4 - - S 1015,3 16 -
22.05.2019 15:00:00 11,1 1,1 5 3 - - - 1014,7 16 -
22.05.2019 14:00:00 10,0 1,7 9 5 - - ESE 1014,5 16 0,0
22.05.2019 13:00:00 9,4 2,8 9 5 - - S 1014,1 16 -
22.05.2019 12:00:00 9,4 1,7 0 0 - - N 1014,0 16 -
22.05.2019 11:00:00 8,9 2,2 0 0 - - N 1013,8 16 -
22.05.2019 10:00:00 7,2 1,7 0 0 - - N 1013,7 16 -
22.05.2019 09:00:00 5,0 1,1 5 3 - - WSW 1014,0 16 -
22.05.2019 08:00:00 4,4 1,7 11 6 - - S 1013,2 16 -
22.05.2019 07:00:00 3,3 1,1 0 0 - - N 1012,8 16 -
22.05.2019 06:00:00 3,3 1,1 13 7 - - SW 1012,1 16 0,3
22.05.2019 05:00:00 3,3 1,1 15 8 - - WSW 1011,9 16 0,0
22.05.2019 04:00:00 3,9 1,7 9 5 - - - 1010,8 10 0,0
22.05.2019 03:00:00 3,9 1,1 11 6 - - WSW 1010,1 16 -
22.05.2019 02:00:00 5,0 -0,6 15 8 - - NE 1009,2 16 -
22.05.2019 01:00:00 5,0 -0,6 15 8 - - ENE 1008,9 16 -
22.05.2019 00:00:00 5,0 0,0 13 7 - - W 1008,8 16 0,0
21.05.2019 23:00:00 6,1 -0,6 11 6 - - E 1008,7 16 -
21.05.2019 22:00:00 6,7 0,0 0 0 - - N 1008,5 16 -
21.05.2019 21:00:00 6,1 1,1 9 5 - - NE 1007,6 16 -
21.05.2019 20:00:00 7,2 1,1 13 7 - - NE 1007,4 16 -
21.05.2019 19:00:00 7,8 1,7 11 6 - - N 1007,0 16 -
21.05.2019 18:00:00 7,8 1,7 29 16 - - NE 1006,9 16 0,0
21.05.2019 17:00:00 6,7 2,8 13 7 - - SSE 1007,3 16 0,8
21.05.2019 16:00:00 7,8 3,3 8 4 - - ESE 1006,8 15 0,5
21.05.2019 15:00:00 9,4 1,7 5 3 - - WNW 1005,6 16 0,0
21.05.2019 14:00:00 10,0 1,7 9 5 - - NNW 1005,9 16 -
21.05.2019 13:00:00 10,6 0,6 11 6 - - NNE 1005,6 16 -
21.05.2019 12:00:00 10,0 1,7 21 11 - - NE 1005,6 16 -
21.05.2019 11:00:00 9,4 1,7 8 4 - - NNE 1005,8 16 -
21.05.2019 10:00:00 7,8 1,1 0 0 - - N 1006,7 16 -
21.05.2019 09:00:00 7,8 2,2 9 5 - - NNW 1006,9 16 -
21.05.2019 08:00:00 5,6 2,2 5 3 - - NNW 1007,3 16 -
21.05.2019 07:00:00 4,4 1,1 0 0 - - N 1007,4 16 -
21.05.2019 06:00:00 3,9 1,7 0 0 - - N 1007,3 16 -
21.05.2019 05:00:00 2,8 1,7 0 0 - - N 1007,7 16 -
21.05.2019 04:00:00 3,9 1,7 0 0 - - N 1007,8 16 -
21.05.2019 03:00:00 2,8 0,6 0 0 - - N 1008,8 16 -
21.05.2019 02:00:00 2,2 0,0 0 0 - - N 1009,1 16 -
21.05.2019 01:00:00 3,9 0,6 8 4 - - WNW 1009,0 16 -
21.05.2019 00:00:00 5,0 0,6 11 6 - - SW 1009,4 16 -
20.05.2019 23:00:00 5,6 1,7 5 3 - - W 1009,7 16 -
20.05.2019 22:00:00 5,6 2,2 8 4 - - NNW 1009,9 16 -
20.05.2019 21:00:00 5,6 1,1 8 4 - - WNW 1009,4 16 -
20.05.2019 20:00:00 7,2 1,1 5 3 - - WSW 1009,2 16 -
20.05.2019 19:00:00 7,8 1,1 0 0 - - N 1009,3 16 -
20.05.2019 18:00:00 7,8 1,7 9 5 - - W 1009,9 16 0,0
20.05.2019 17:00:00 7,8 1,1 5 3 - - - 1009,9 16 0,0
20.05.2019 16:00:00 7,8 1,7 21 11 - - NNW 1010,1 16 -
20.05.2019 15:00:00 7,2 0,6 5 3 - - - 1010,0 16 -
20.05.2019 14:00:00 7,8 1,1 13 7 - - W 1009,7 16 0,0
20.05.2019 13:00:00 6,7 0,0 0 0 - - N 1010,0 16 0,0
20.05.2019 12:00:00 6,1 -0,6 9 5 - - SSE 1010,3 16 -
20.05.2019 11:00:00 5,6 -1,1 9 5 - - WSW 1010,3 16 -
20.05.2019 10:00:00 5,0 -0,6 13 7 - - W 1010,8 16 -
20.05.2019 09:00:00 5,0 -1,7 16 9 - - WSW 1010,6 16 -
20.05.2019 08:00:00 4,4 -1,7 5 3 - - - 1010,6 16 -
20.05.2019 07:00:00 3,9 -1,7 24 13 - - NE 1010,5 16 -
20.05.2019 06:00:00 3,3 -2,2 165 89 - - NNE 1010,6 16 -
20.05.2019 05:00:00 2,8 -1,7 8 4 - - N 1011,1 16 -
20.05.2019 04:00:00 2,8 -1,7 8 4 - - WNW 1010,8 16 -
20.05.2019 03:00:00 3,3 -1,7 - - - - - 1010,3 16 -
20.05.2019 02:00:00 3,9 -2,2 13 7 - - E 1010,7 16 -
20.05.2019 01:00:00 3,9 -1,7 16 9 - - E 1011,8 16 -
20.05.2019 00:00:00 3,9 -2,2 9 5 - - NE 1011,8 16 -
19.05.2019 23:00:00 3,9 -2,2 26 14 - - ENE 1011,8 16 -
19.05.2019 22:00:00 3,9 -1,7 18 10 - - ENE 1011,9 16 -
19.05.2019 21:00:00 4,4 -1,7 13 7 - - SE 1012,0 16 -
19.05.2019 20:00:00 5,0 -1,7 15 8 - - E 1012,1 16 -
19.05.2019 19:00:00 6,7 -2,2 15 8 - - ESE 1011,6 16 -
19.05.2019 18:00:00 5,6 -2,2 24 13 50 27 E 1012,3 16 -
19.05.2019 17:00:00 6,1 -1,7 41 22 52 28 ENE 1012,1 16 -
19.05.2019 16:00:00 7,2 -1,1 39 21 55 30 ENE 1011,7 16 -

tt = temperature
td = dewpoint
ff = wind speed
fx = gusts
dd = wind direction
ppp = reduced air pressure
vv = visibility
rr = precipitation

Next stations